Location: Newark
(46.8000°N, 92.1000°W)
Time: 13:28:07
(UTC+00:00)

AO-85 - Visible Passes

Search period start: 16 May 2021 00:00
Search period end: 26 May 2021 00:00
Orbit: 521 x 762 km, 64.8° (Epoch: 12 March)

Date Brightness Start Highest point End Pass type
(mag) Time Alt. Az. Time Alt. Az. Time Alt. Az.
16 May ? 05:23:07 44° E 05:23:07 44° E 05:26:58 10° NE visible
16 May ? 07:00:39 19° W 07:03:03 29° NW 07:07:17 10° NNE visible
16 May ? 08:43:36 10° NNW 08:45:06 11° NNW 08:46:36 10° N visible
17 May ? 04:08:40 12° E 04:08:40 12° E 04:09:34 10° ENE visible
17 May ? 05:46:12 66° WSW 05:46:44 77° NW 05:51:31 10° NE visible
17 May ? 07:24:45 10° WNW 07:27:59 18° NNW 07:31:23 10° NNE visible
18 May ? 04:31:40 31° E 04:31:40 31° E 04:35:10 10° NE visible
18 May ? 06:09:11 24° W 06:11:18 38° NW 06:15:50 10° NNE visible
18 May ? 07:50:56 10° NW 07:53:07 13° NNW 07:55:21 10° N visible
19 May ? 04:54:30 61° S 04:55:10 74° SE 04:59:56 10° NE visible
19 May ? 06:32:29 10° W 06:36:08 23° NNW 06:39:59 10° NNE visible
19 May ? 08:17:51 10° NNW 08:18:23 10° N 08:18:56 10° N visible
20 May ? 03:39:39 22° ESE 03:39:39 22° ESE 03:43:13 10° ENE visible
20 May ? 05:17:09 24° WSW 05:19:37 53° NW 05:24:20 10° NNE visible
20 May ? 06:58:25 10° WNW 07:01:10 15° NNW 07:04:01 10° NNE visible
21 May ? 04:02:03 33° S 04:03:41 50° ESE 04:08:15 10° NE visible
21 May ? 05:40:22 10° W 05:44:19 29° NW 05:48:34 10° NNE visible
21 May ? 07:24:52 10° NNW 07:26:22 11° NNW 07:27:55 10° N visible
21 May ? 09:08:08 10° N 09:09:07 10° N 09:10:05 10° NNE visible
22 May ? 02:46:35 12° SE 02:48:19 15° ESE 02:50:54 10° ENE visible
22 May ? 04:24:02 13° SW 04:28:00 76° NW 04:32:48 10° NE visible
22 May ? 06:06:01 10° WNW 06:09:16 18° NNW 06:12:39 10° NNE visible
22 May ? 09:31:53 10° N 09:34:23 14° NNE 09:36:57 10° NE visible
23 May ? 03:08:19 10° S 03:12:15 33° ESE 03:16:27 10° NE visible
23 May ? 04:48:22 10° WSW 04:52:34 38° NW 04:57:06 10° NNE visible
23 May ? 06:32:12 10° NW 06:34:23 13° NNW 06:36:39 10° N visible
24 May ? 03:32:03 10° SSW 03:36:26 76° SE 03:41:12 10° NE visible
24 May ? 05:13:45 10° W 05:17:24 23° NNW 05:21:16 10° NNE visible
24 May ? 06:59:04 10° NNW 06:59:40 10° N 07:00:17 10° N visible
24 May ? 08:40:33 10° N 08:42:24 12° NNE 08:44:17 10° NE visible
25 May ? 02:17:26 10° SSE 02:20:52 23° ESE 02:24:31 10° ENE visible
25 May ? 03:56:32 10° SW 04:00:53 52° NW 04:05:37 10° NNE visible
25 May ? 05:39:41 10° WNW 05:42:27 15° NNW 05:45:18 10° NNE visible
25 May ? 09:04:28 10° NNW 09:07:37 16° NNE 09:10:49 10° ENE visible
